Temp
2 1 1 0 -0 -0 -0 -1 -1 -1 -2 -2 -3 -2 -2 -3 -3 -3 -4 -4 -5 -5 -6 -5 -5 -4 -4 -4 -4 -4 -3 -2 -1 0 -0 -2 -3 -3 -2 -2 -1 -0 1
2 1 1 0 -0 -1 -1 -2 -2 -2 -3 -3 -3 -3 -3 -4 -4 -4 -5 -6 -6 -6 -7 -7 -6 -6 -5 -5 -5 -5 -4 -3 -3 -2 -3 -3 -4 -5 -4 -3 -2 -2 0
1 1 0 -0 -1 -1 -2 -2 -3 -3 -3 -4 -4 -4 -4 -5 -5 -5 -6 -7 -7 -7 -7 -7 -7 -7 -7 -6 -6 -6 -5 -4 -4 -4 -4 -5 -6 -6 -6 -5 -4 -3 -1
1 1 -0 -1 -1 -2 -3 -3 -3 -4 -4 -5 -5 -5 -5 -5 -6 -6 -7 -7 -8 -8 -7 -8 -8 -7 -7 -7 -7 -7 -6 -6 -6 -6 -6 -6 -7 -7 -7 -6 -5 -4 -3
1 -0 -1 -2 -2 -3 -3 -4 -5 -5 -6 -6 -6 -6 -5 -6 -7 -7 -8 -8 -8 -8 -8 -8 -8 -8 -8 -8 -8 -8 -8 -8 -9 -8 -8 -8 -8 -9 -9 -8 -7 -6 -4
0 -1 -2 -2 -3 -4 -4 -5 -5 -6 -6 -6 -6 -6 -6 -6 -7 -8 -8 -8 -9 -9 -8 -8 -9 -9 -9 -9 -9 -9 -9 -10 -10 -9 -9 -9 -9 -10 -10 -9 -9 -7 -5
-1 -2 -2 -3 -4 -5 -5 -6 -6 -7 -7 -7 -7 -7 -7 -7 -8 -9 -8 -8 -8 -9 -9 -9 -9 -10 -10 -10 -11 -12 -11 -10 -11 -11 -11 -11 -11 -11 -12 -11 -10 -9 -8
-2 -2 -3 -4 -4 -5 -6 -6 -7 -7 -7 -8 -8 -8 -8 -8 -8 -9 -9 -9 -9 -9 -9 -9 -10 -10 -11 -11 -12 -12 -13 -13 -12 -12 -12 -12 -12 -12 -12 -12 -12 -10 -7
-3 -3 -4 -4 -5 -6 -7 -7 -8 -8 -8 -8 -8 -8 -8 -8 -9 -9 -9 -9 -9 -9 -9 -9 -9 -10 -11 -12 -12 -13 -13 -13 -13 -14 -13 -13 -14 -13 -13 -13 -13 -12 -11
-3 -3 -4 -4 -5 -6 -7 -8 -8 -8 -8 -8 -8 -8 -8 -8 -9 -9 -9 -9 -10 -10 -10 -10 -9 -10 -10 -12 -13 -14 -14 -15 -14 -13 -13 -13 -13 -14 -14 -14 -15 -14 -14
-3 -4 -4 -5 -5 -6 -7 -8 -8 -9 -9 -9 -9 -9 -8 -8 -8 -9 -10 -10 -10 -10 -11 -11 -11 -10 -11 -12 -13 -14 -15 -14 -14 -14 -15 -14 -15 -15 -15 -15 -14 -14 -14
-3 -4 -5 -5 -6 -7 -7 -8 -9 -9 -9 -10 -10 -9 -9 -9 -9 -8 -9 -10 -10 -11 -12 -12 -12 -13 -12 -13 -14 -14 -15 -14 -15 -16 -16 -17 -17 -16 -16 -16 -16 -15 -15
-4 -5 -5 -6 -6 -6 -7 -8 -9 -9 -9 -10 -10 -10 -9 -9 -9 -9 -10 -10 -11 -11 -12 -13 -14 -14 -14 -14 -15 -16 -15 -15 -16 -16 -17 -17 -17 -17 -17 -16 -16 -16 -16
-5 -6 -6 -6 -6 -6 -7 -8 -8 -9 -10 -10 -10 -10 -9 -9 -9 -9 -10 -11 -11 -12 -12 -13 -14 -14 -14 -14 -14 -15 -16 -17 -17 -18 -18 -17 -16 -16 -16 -17 -17 -17 -17
-6 -6 -6 -6 -6 -7 -7 -7 -8 -8 -8 -10 -10 -10 -9 -10 -10 -10 -11 -12 -12 -13 -13 -13 -13 -14 -14 -15 -16 -17 -17 -17 -17 -18 -17 -18 -17 -18 -18 -18 -18 -18 -18
-6 -7 -7 -7 -8 -7 -8 -9 -9 -9 -10 -10 -10 -10 -9 -9 -9 -10 -11 -12 -14 -13 -13 -15 -16 -17 -17 -17 -18 -18 -18 -18 -19 -19 -19 -20 -19 -20 -19 -19 -19 -19 -18
-6 -6 -7 -7 -8 -9 -9 -10 -10 -10 -10 -10 -10 -10 -10 -10 -10 -11 -12 -13 -15 -13 -15 -16 -17 -17 -18 -18 -19 -19 -20 -20 -19 -20 -20 -20 -19 -19 -19 -20 -19 -19 -19
-6 -7 -7 -7 -8 -9 -9 -10 -10 -10 -10 -10 -10 -10 -10 -11 -11 -12 -13 -13 -14 -15 -16 -17 -17 -18 -18 -19 -19 -20 -20 -19 -19 -20 -20 -20 -20 -20 -20 -20 -20 -20 -20
-6 -6 -6 -6 -7 -8 -8 -9 -9 -10 -10 -10 -11 -10 -11 -12 -13 -14 -14 -14 -14 -16 -17 -17 -18 -18 -19 -19 -20 -20 -20 -19 -19 -19 -20 -20 -20 -20 -20 -20 -20 -20 -20
-5 -5 -5 -6 -7 -8 -9 -9 -10 -10 -11 -11 -11 -11 -12 -12 -13 -14 -15 -15 -15 -16 -17 -17 -18 -19 -19 -19 -19 -19 -19 -19 -20 -20 -20 -20 -20 -20 -20 -20 -20 -21 -21
-5 -5 -5 -6 -7 -8 -8 -9 -10 -11 -11 -11 -11 -11 -12 -12 -13 -14 -15 -16 -16 -17 -17 -18 -19 -19 -19 -19 -19 -20 -20 -21 -21 -20 -20 -20 -20 -20 -20 -20 -20 -20 -20
-5 -5 -6 -6 -7 -8 -8 -8 -9 -10 -11 -11 -12 -13 -13 -13 -14 -15 -16 -16 -17 -18 -18 -19 -19 -19 -19 -19 -20 -20 -21 -21 -21 -21 -21 -21 -20 -20 -20 -20 -20 -20 -20
-5 -6 -7 -7 -7 -7 -8 -8 -9 -9 -10 -11 -12 -13 -14 -14 -14 -15 -16 -17 -18 -18 -19 -19 -19 -19 -20 -20 -20 -21 -21 -22 -21 -22 -22 -21 -21 -21 -21 -20 -20 -20 -21
-6 -6 -7 -7 -7 -8 -8 -9 -9 -10 -10 -11 -12 -13 -13 -14 -15 -16 -17 -17 -18 -18 -18 -19 -19 -19 -20 -20 -20 -21 -22 -22 -22 -22 -22 -22 -21 -21 -21 -21 -21 -21 -20
-6 -7 -7 -8 -8 -8 -9 -9 -10 -10 -11 -12 -12 -13 -14 -15 -15 -16 -17 -18 -18 -18 -18 -19 -19 -20 -20 -20 -21 -21 -22 -22 -22 -23 -22 -22 -22 -22 -22 -21 -21 -21 -20
-7 -7 -7 -8 -9 -9 -10 -10 -11 -11 -12 -12 -13 -13 -14 -15 -15 -16 -17 -18 -18 -18 -19 -19 -19 -20 -20 -21 -21 -22 -22 -22 -22 -23 -23 -23 -22 -22 -22 -22 -21 -21 -21
Height
809 812 813 816 821 822 822 820 821 824 824 824 821 821 820 814 811 809 810 810 807 804 802 801 795 791 792 792 789 785 781 780 776 772 770 766 760 756 750 748 744 742 740
810 813 816 818 819 822 822 821 822 824 824 823 822 822 820 815 814 812 812 811 808 806 804 804 797 796 795 795 792 788 784 782 780 777 774 772 770 762 756 751 745 741 739
808 812 815 819 822 823 823 822 822 823 822 824 824 823 820 818 816 816 814 812 811 809 808 807 801 800 798 798 795 792 787 785 783 782 779 775 767 764 757 752 746 743 741
809 811 813 819 823 824 825 823 822 823 823 824 825 823 823 820 820 819 817 815 813 812 812 810 806 803 802 801 798 795 791 786 786 782 778 777 773 768 762 755 747 744 742
807 811 813 818 821 826 825 824 822 824 826 825 824 824 824 823 823 821 820 818 816 816 815 813 810 809 808 805 802 799 793 790 788 787 785 781 774 766 761 760 756 748 744
805 812 816 818 819 825 822 821 824 827 828 825 825 825 825 827 826 824 822 821 819 818 816 815 814 811 810 808 804 802 798 795 794 795 792 787 783 777 769 765 760 753 749
804 810 813 818 822 823 823 822 825 830 828 827 827 826 829 830 829 827 826 824 823 821 819 818 816 814 812 810 808 804 801 802 803 801 796 792 789 782 775 768 763 760 758
801 806 812 819 822 823 823 824 829 830 831 829 828 830 832 833 832 831 829 827 826 824 823 821 819 818 816 814 810 808 806 806 805 801 798 796 792 787 779 775 769 763 760
800 805 812 816 822 823 824 829 829 829 835 831 832 834 834 835 835 834 833 831 829 827 826 825 824 822 821 818 815 813 811 807 804 803 802 799 795 790 784 776 769 764 762
800 803 810 815 820 823 827 831 830 833 836 834 835 837 837 837 838 838 836 834 832 831 830 828 828 827 826 823 819 817 813 811 808 805 802 799 794 791 789 783 781 778 774
798 805 809 814 817 824 828 831 830 836 836 836 838 838 839 839 840 840 839 837 835 834 833 832 831 830 828 826 822 820 819 814 809 806 804 801 798 795 792 789 786 785 783
799 803 809 813 818 824 829 830 833 837 836 838 839 840 840 841 842 842 841 839 838 836 836 835 834 832 830 828 826 824 820 815 812 809 807 804 801 799 797 795 792 789 789
798 804 809 814 818 824 827 831 835 837 837 839 840 841 842 843 842 842 842 841 840 839 839 837 835 833 831 828 828 825 820 817 814 810 810 807 805 802 798 794 791 789 789
798 804 808 813 819 824 827 831 833 836 838 840 841 842 843 844 844 844 843 842 841 841 840 838 836 834 832 831 828 826 824 822 820 818 815 812 808 802 797 794 791 788 785
799 804 808 814 818 823 827 830 833 836 837 839 842 843 844 845 845 845 844 843 843 843 841 840 838 836 834 832 831 830 828 825 821 819 816 813 811 808 805 803 800 796 794
799 805 809 813 819 823 827 831 835 836 839 841 843 845 846 846 847 847 847 846 845 844 843 841 840 839 837 836 834 833 831 829 827 825 822 819 816 812 809 806 803 800 796
797 803 808 812 818 823 827 830 833 838 840 842 844 846 847 847 847 848 848 847 846 845 843 843 841 840 840 839 839 838 836 833 830 827 824 821 818 815 811 808 805 802 797
798 802 806 811 817 822 826 829 831 834 837 840 843 845 847 847 848 848 847 846 846 845 844 844 844 844 843 842 841 840 838 834 831 828 826 823 820 818 815 812 809 806 801
797 801 805 811 817 821 825 828 831 834 837 840 843 845 847 848 848 848 846 846 846 846 846 845 845 845 844 843 842 840 838 835 832 830 828 825 823 820 817 814 811 807 803
796 800 804 810 816 820 823 827 831 834 837 840 842 844 845 846 847 847 847 847 846 846 846 846 846 845 844 843 841 840 838 835 833 831 829 826 824 821 818 815 811 808 804
794 798 803 809 813 817 820 824 828 831 835 838 841 843 844 845 846 846 847 847 846 846 846 846 846 845 843 842 841 840 838 836 833 831 829 826 824 820 818 815 812 808 804
793 797 802 806 811 815 818 822 825 828 832 836 838 841 843 844 844 845 846 846 846 846 846 846 845 844 842 841 840 839 837 835 833 830 828 826 823 820 818 815 812 808 804
792 797 801 806 810 814 817 820 823 826 830 833 836 838 840 842 843 844 845 845 845 845 845 844 843 843 841 840 839 838 836 834 831 829 827 825 822 819 817 814 811 807 803
793 797 800 805 809 812 815 819 822 825 828 831 834 836 838 840 842 843 843 844 844 843 843 842 841 841 840 839 838 837 835 832 830 828 826 823 821 819 816 813 810 807 803
793 797 800 804 808 811 815 818 821 824 826 829 832 835 837 838 840 841 842 842 842 841 841 840 839 838 838 837 835 834 832 829 827 826 824 821 819 817 815 812 808 804 801
794 797 800 804 807 810 813 816 819 822 824 827 830 832 834 836 837 838 839 839 839 839 838 837 837 836 835 834 833 831 828 826 824 823 821 818 816 814 811 808 805 802 798
Wind_Speed
14 12 12 12 10 7 8 9 9 6 8 9 8 9 11 12 11 11 10 10 13 16 17 18 19 19 18 17 18 16 15 14 6 7 12 20 22 28 25 22 18 15 15
15 14 13 12 12 11 11 9 7 6 7 8 9 10 11 12 13 12 10 11 14 18 20 18 21 16 18 18 17 18 18 17 12 12 11 19 19 25 23 22 21 14 15
17 17 18 15 14 13 11 9 7 7 9 8 10 14 14 12 13 13 12 13 14 17 19 18 19 20 20 17 19 19 20 15 15 12 11 18 24 27 25 25 21 17 12
22 21 20 18 15 12 10 9 8 8 9 10 11 13 12 11 12 12 13 15 15 15 15 20 19 21 20 15 19 19 18 18 17 16 17 18 21 25 21 26 27 26 17
24 22 21 18 15 12 10 9 9 9 9 11 12 13 13 12 10 11 12 15 15 15 15 16 21 16 17 17 16 23 21 19 19 17 16 16 24 28 27 24 21 25 7
25 23 20 18 15 12 11 11 10 10 10 13 14 14 14 12 11 10 13 17 17 17 14 17 18 18 16 19 19 19 24 23 20 17 15 19 23 25 24 24 23 17 5
27 23 20 17 15 13 13 14 14 13 13 15 15 16 13 12 10 11 14 18 21 23 23 18 20 22 16 16 18 20 21 22 18 18 18 20 22 27 24 24 25 21 8
27 24 21 18 16 16 17 18 17 16 17 17 17 16 14 12 11 12 14 16 19 21 23 22 23 25 24 16 17 22 24 22 22 20 23 21 24 25 26 18 21 22 10
25 25 22 21 20 20 21 20 19 18 17 19 18 17 16 14 11 11 14 18 19 20 21 21 23 24 22 22 24 24 26 26 22 19 19 21 21 25 28 28 30 27 8
26 25 23 22 23 22 22 20 19 16 16 16 17 16 15 14 11 12 14 16 20 21 20 21 20 20 20 21 26 25 26 24 25 26 27 28 31 30 29 32 29 21 16
25 25 23 23 24 24 23 20 18 15 14 15 15 16 16 13 10 11 12 15 17 19 20 21 19 18 19 20 23 25 21 23 26 28 30 32 32 32 34 30 27 23 23
26 25 24 25 25 25 24 21 18 15 16 15 15 14 13 13 11 10 12 13 13 17 17 16 17 17 18 21 21 21 22 28 29 29 28 29 31 31 27 26 26 18 18
28 27 27 26 25 23 25 23 20 16 16 16 16 14 13 11 10 11 10 11 10 13 14 15 15 16 18 20 22 22 28 30 32 32 30 30 30 29 27 28 30 28 15
29 28 26 26 23 21 22 25 21 18 16 15 14 13 12 10 10 8 8 8 9 9 9 12 15 16 19 20 22 25 28 27 27 28 26 27 28 32 35 33 30 34 23
26 24 26 25 23 21 22 23 19 15 13 18 15 12 11 11 12 10 8 8 8 8 7 10 15 18 21 22 23 24 26 27 28 28 28 29 29 29 27 27 23 23 21
25 23 23 24 22 22 21 16 12 13 15 14 13 11 9 8 10 10 9 10 8 4 9 15 17 18 20 20 21 22 25 25 23 23 23 24 25 25 25 24 23 22 22
25 24 24 24 23 22 22 22 22 16 13 12 10 8 8 8 8 9 9 8 8 5 12 13 15 16 16 15 15 16 19 20 19 21 22 24 25 25 26 25 24 25 24
25 25 27 26 25 24 24 24 24 22 20 15 10 8 8 10 8 7 7 5 6 8 10 10 11 12 11 11 11 11 17 18 19 20 21 21 22 23 24 23 21 22 21
27 27 27 28 26 26 24 23 23 22 19 15 11 11 15 10 8 7 3 4 6 7 6 6 7 8 9 8 8 8 14 17 17 17 18 19 19 20 22 23 24 26 22
27 27 26 27 27 25 24 24 23 21 19 15 14 17 17 12 5 4 4 4 5 5 4 3 3 5 7 7 8 10 13 16 16 16 16 17 18 19 20 22 25 22 21
26 26 27 27 27 25 25 24 24 22 21 18 16 16 15 10 7 5 5 3 2 1 1 1 1 4 7 9 8 9 11 14 14 14 15 17 18 19 19 20 23 25 23
27 27 26 26 25 24 23 22 22 22 22 20 16 14 13 10 8 7 5 3 1 1 1 2 2 4 6 8 8 9 12 15 14 14 13 16 17 18 18 20 21 24 24
28 26 24 24 24 23 22 21 21 20 22 20 17 16 14 11 9 8 7 4 3 3 4 4 5 6 7 9 9 9 12 16 15 14 14 15 16 17 18 19 21 22 22
25 24 23 22 22 22 21 20 19 19 20 20 18 15 13 11 9 8 7 6 5 5 5 6 7 8 8 9 9 9 12 15 14 11 13 15 16 16 17 19 20 20 23
21 22 22 22 22 20 19 19 18 17 18 18 17 15 13 11 10 9 8 7 6 6 7 8 9 9 10 10 9 11 14 14 12 10 12 14 14 14 16 18 20 19 21
20 20 20 19 19 19 19 18 17 16 16 16 16 15 13 12 11 10 10 9 9 8 9 10 10 10 10 10 11 13 15 13 9 8 11 13 14 16 17 17 19 17 19
Wind_Direction
140 134 129 117 121 120 117 103 91 64 45 43 64 64 67 62 53 53 46 54 45 43 38 34 40 40 36 20 17 17 16 10 321 320 357 357 356 352 355 358 2 359 37
149 150 148 145 139 129 123 117 98 66 52 56 73 75 72 68 51 47 56 54 52 49 40 30 40 32 38 25 23 17 20 17 7 3 351 358 354 355 356 360 3 12 33
161 157 150 147 146 136 130 130 102 71 60 75 88 76 75 70 52 53 60 57 58 55 44 34 38 35 34 29 26 21 21 19 15 15 360 359 2 1 359 4 11 27 27
160 153 149 154 152 142 137 125 104 77 83 93 95 72 64 65 61 62 62 61 57 52 46 42 42 40 35 32 32 26 24 28 15 18 11 3 4 2 8 4 359 11 17
162 157 154 155 149 150 137 123 106 94 97 103 96 77 72 64 56 62 65 62 58 53 51 47 45 50 46 45 42 36 36 34 24 18 12 8 8 5 7 355 357 352 15
163 160 157 156 151 153 135 126 120 110 110 106 101 90 82 74 64 66 76 73 66 59 52 48 42 44 47 49 49 50 46 43 33 23 22 17 8 5 358 359 358 359 356
164 162 159 158 156 144 134 127 120 120 111 100 102 98 92 77 69 77 85 82 76 70 63 60 47 43 46 47 50 52 55 49 48 41 37 24 14 10 1 359 359 358 5
160 161 162 163 154 146 135 124 126 119 110 105 97 98 98 86 82 81 89 88 82 75 68 62 57 48 43 50 52 57 58 56 44 44 43 35 28 19 21 8 360 357 56
157 162 168 165 156 150 137 135 130 120 118 107 103 100 96 91 82 83 96 90 84 76 71 65 60 54 45 48 59 56 56 54 53 47 47 42 39 33 27 30 18 14 3
163 167 168 165 160 151 146 141 130 126 124 115 109 104 104 95 85 77 88 92 85 78 71 66 56 57 52 46 51 48 46 42 46 49 50 49 46 43 36 41 31 23 6
168 165 163 164 159 158 151 147 135 134 129 122 116 108 105 100 95 84 76 81 82 80 73 64 56 54 51 49 47 45 41 45 45 44 40 38 36 37 36 36 40 37 32
167 163 162 159 159 164 164 154 143 136 124 125 122 115 110 100 81 92 86 80 82 78 69 66 59 53 57 49 49 44 43 46 43 41 33 27 25 24 27 27 31 49 42
163 160 158 160 161 165 168 160 154 145 131 128 122 116 110 101 102 100 99 88 86 87 75 65 62 58 58 58 46 43 43 39 37 36 28 23 24 22 23 18 21 22 32
154 155 157 160 162 166 170 172 169 157 147 143 132 124 115 108 116 122 119 95 85 77 72 68 63 62 59 55 49 45 42 40 37 33 28 25 24 25 24 19 8 7 7
151 151 157 159 163 165 172 176 177 176 172 152 135 128 121 116 129 107 94 96 89 81 85 77 63 55 52 48 46 42 37 35 35 30 28 26 24 24 21 16 8 3 5
152 154 154 155 158 159 158 147 160 155 146 144 136 127 119 108 115 110 102 95 92 82 82 70 61 53 50 43 39 35 32 31 30 30 29 27 24 21 12 10 8 4 358
156 156 157 160 159 154 149 143 140 142 142 142 143 137 137 122 119 116 114 107 93 93 81 69 60 52 46 43 40 36 27 26 26 29 27 25 23 23 18 9 3 360 352
160 162 163 167 165 162 160 158 153 153 155 154 138 153 143 129 124 131 137 143 109 85 82 72 62 52 45 39 36 34 25 25 27 26 25 23 20 18 14 6 358 351 344
170 174 179 179 181 179 175 171 169 167 167 169 169 162 147 130 122 118 135 159 131 113 95 81 61 52 44 38 34 26 21 23 23 24 24 20 17 11 10 8 359 357 347
183 186 185 187 185 182 180 179 178 180 181 180 176 171 168 174 174 157 147 147 141 120 111 108 77 41 29 25 20 15 12 12 13 13 13 13 11 7 3 1 0 347 340
189 187 189 188 186 187 187 187 187 189 191 191 195 198 203 215 192 181 167 156 133 132 136 129 33 3 6 10 5 1 1 3 3 1 1 360 360 358 358 356 355 355 343
192 187 186 185 189 190 192 194 196 199 199 192 189 190 198 208 200 195 192 188 186 233 273 294 309 334 339 351 351 347 348 352 351 349 348 351 351 351 349 349 350 350 346
181 179 180 183 186 185 185 188 191 195 195 194 192 190 194 204 210 208 205 214 234 273 273 276 298 310 315 328 335 334 337 340 338 336 333 339 342 344 344 342 343 344 332
183 184 183 182 182 184 188 189 193 196 196 197 198 200 203 208 214 214 216 230 259 287 279 277 291 299 298 310 318 320 324 326 326 323 322 325 330 332 335 335 337 334 339
188 185 184 183 186 189 190 190 192 195 199 201 202 205 210 213 215 221 230 246 269 287 286 283 288 290 288 303 306 313 319 318 315 309 313 317 320 324 327 328 331 331 340
185 186 187 190 193 194 192 193 196 201 204 206 209 214 220 224 228 231 239 253 270 281 291 286 282 279 287 297 305 313 316 314 306 306 313 319 321 324 325 326 330 330 336